DECAYED

DMSP 5D-2 F13 DEB, 42326 (Decayed)

Orbit data source: Space-Track

DMSP 5D-2 F13 DEB, 42326 was space debris in SSO originally from a launch on Fri, 24 Mar 1995 UTC launched from the Air Force Western Test Range (AFWTR). Debris objects in space refer to the collection of defunct objects orbiting the Earth. Examples of debris include non-operational satellites, rocket bodies, and fragments generated from explosions, collisions, or faulty payload assembly.

Not visible in the next 10 days
Identifier
42326, 1995-015JU
Orbit
Decayed
Country
Flag of USUS
Related business
Manufacturer
Unknown
Mission
Decayed spacecraft
Bus & Motor
Unknown
Mass
Unknown
Launch date (UTC)
1995-03-24 (31 years ago)
Launch vehicle
Unknown
Launch site
Air Force Western Test Range (AFWTR)
Object type
Payload
Rocket body
Debris
Shape & HBR
Unknown shape, 0.1 m
Radar Cross Section
Medium (>0.1 m² and <1 m²)

Expand to show TLE details & history
Last TLE update: 9 months ago

TLE from 9 months ago
0 DMSP 5D-2 F13 DEB
1 42326U 95015JU  25263.24011796  .01541361  00000-0  23458-1 0  9999
2 42326  98.7497   2.3325 0020047 275.4061  84.4900 15.51505669519649
Epoch: 2025-09-20T05:45Z
TLE epoch observation values (Epoch: 2025-09-20T05:45:46.191Z)
Latitude
-0.00004°
Longitude
-83.48581°
Altitude
414.139 km
Speed
7.663 km/s
True Right ascension
00h 09m 19s
True Declination
0° 00' 00"
Sunlit
Object was in full shadow at epoch
Visualization orbit readout
Latitude
Unknown
Longitude
Unknown
Altitude
Unknown
Speed
Unknown
Apparent Right ascension
Unknown
Apparent Declination
Unknown
Sunlit
N/A
Visualization observer readout
Local Sidereal Time
13:34:27
Azimuth
Unknown
Elevation
Unknown
Doppler factor
Unknown
Orbital elements
Apogee altitude
422.923 km
Perigee altitude
395.71 km
Semi-major axis
6,787.454 km
Eccentricity
0.002
Inclination
98.7497°
RAAN
2.3325°
Arg. of periapsis
275.4061°
True anomaly
84.71871°
Mean anomaly
84.49°
Eccentric anomaly
84.60435°
Mean motion
3.88135 °/min
Orbital period
92.75 mins
BSTAR
0.023458
Loading maneuver chart data...
Computing Atmospheric mass density...

Documentation

Showing up to 5 results
|